W8BS Weather Reports


time (UTC)temp
C
wind
direction
speed
KPH
gust
KPH
rain 1hr
cm
rain 24hr
cm
rain mn
cm
humidity
%
barometer
mb
20260510061106 12 192 1.6 4.8 0.00 0.00 0.00 86 1011.8
20260510060602 12 223 3.2 4.8 0.00 0.00 0.00 86 1012.1
20260510060059 12 191 1.6 8.0 0.00 0.00 0.00 86 1011.9
20260510055554 12 202 3.2 3.2 0.00 0.00 0.00 86 1012.2
20260510055053 12 191 1.6 3.2 0.00 0.00 0.00 86 1012.1
20260510054549 12 188 1.6 3.2 0.00 0.00 0.00 86 1012.1
20260510054043 12 191 1.6 8.0 0.00 0.00 0.00 86 1012.1
20260510053538 12 191 1.6 1.6 0.00 0.00 0.00 85 1012.4
20260510053035 12 200 1.6 4.8 0.00 0.00 0.00 85 1012.3
20260510052531 12 203 3.2 4.8 0.00 0.00 0.00 85 1012.2
20260510052027 12 200 3.2 3.2 0.00 0.00 0.00 85 1012.3
20260510051523 12 189 1.6 3.2 0.00 0.00 0.00 85 1012.3
20260510051020 12 192 0.0 4.8 0.00 0.00 0.00 85 1012.3
20260510050517 12 193 1.6 4.8 0.00 0.00 0.00 85 1012.2
20260510050014 12 195 0.0 3.2 0.00 0.00 0.00 84 1012.6
20260510045511 12 195 1.6 3.2 0.00 0.00 0.00 84 1012.2
20260510045007 12 202 3.2 4.8 0.00 0.00 0.00 84 1012.3
20260510044504 12 197 1.6 4.8 0.00 0.00 0.00 84 1012.4
20260510044002 12 193 1.6 4.8 0.00 0.00 0.00 84 1011.9
20260510043457 12 196 1.6 3.2 0.00 0.00 0.00 84 1012.5
20260510042956 12 209 3.2 3.2 0.00 0.00 0.00 84 1012.1
20260510042452 12 194 3.2 3.2 0.00 0.00 0.00 84 1012.1
20260510041947 12 197 1.6 4.8 0.00 0.00 0.00 83 1012.3
20260510041444 12 194 1.6 3.2 0.00 0.00 0.00 83 1011.6
20260510040942 12 195 1.6 1.6 0.00 0.00 0.00 83 1011.9
20260510040438 12 197 3.2 3.2 0.00 0.00 0.00 83 1011.7
20260510035934 12 196 1.6 3.2 0.00 0.00 0.00 83 1011.9
20260510035430 12 188 0.0 3.2 0.00 0.00 0.00 83 1011.6
20260510034925 12 190 1.6 3.2 0.00 0.00 0.00 84 1011.8
20260510034424 12 193 1.6 3.2 0.00 0.00 0.00 84 1011.9
20260510033919 12 193 1.6 3.2 0.00 0.00 0.00 84 1011.7
20260510033416 12 196 3.2 3.2 0.00 0.00 0.00 82 1011.7
20260510032913 12 198 3.2 3.2 0.00 0.00 0.00 82 1011.7
20260510032410 12 196 3.2 3.2 0.00 0.00 0.00 82 1011.8
20260510031905 12 195 1.6 3.2 0.00 0.00 0.00 83 1011.5
20260510031401 12 194 0.0 3.2 0.00 0.00 0.00 82 1011.5
20260510030901 12 195 1.6 3.2 0.00 0.00 0.00 82 1011.5
20260510030357 12 194 1.6 3.2 0.00 0.00 0.00 82 1011.3
20260510025855 12 194 0.0 3.2 0.00 0.00 0.00 81 1011.5
20260510025353 12 194 1.6 3.2 0.00 0.00 0.00 81 1011.4
20260510024849 12 195 1.6 3.2 0.00 0.00 0.00 82 1011.3
20260510024346 12 197 1.6 4.8 0.00 0.00 0.00 82 1011.4
20260510023842 12 180 1.6 4.8 0.00 0.00 0.00 82 1011.3
20260510023339 12 203 3.2 4.8 0.00 0.00 0.00 82 1011.4
20260510022836 12 191 0.0 1.6 0.00 0.00 0.00 83 1011.5
20260510022335 12 191 3.2 3.2 0.00 0.00 0.00 85 1011.2
20260510021834 12 191 0.0 0.0 0.00 0.00 0.00 85 1011.2
20260510021333 12 191 0.0 0.0 0.00 0.00 0.00 84 1011.2
20260510020828 12 191 0.0 1.6 0.00 0.00 0.00 83 1010.9
20260510020323 12 191 0.0 3.2 0.00 0.00 0.00 82 1011.3
20260510015819 12 190 1.6 1.6 0.00 0.00 0.00 83 1011.3
20260510015315 12 195 0.0 1.6 0.00 0.00 0.00 82 1011.1
20260510014811 12 195 1.6 1.6 0.00 0.00 0.00 82 1010.9
20260510014308 12 195 0.0 0.0 0.00 0.00 0.00 80 1010.9
20260510013804 13 195 0.0 1.6 0.00 0.00 0.00 80 1011.0
20260510013300 13 195 0.0 0.0 0.00 0.00 0.00 79 1010.8
20260510012755 13 196 0.0 1.6 0.00 0.00 0.00 79 1010.8
20260510012250 13 189 1.6 3.2 0.00 0.00 0.00 78 1010.7
20260510011749 13 189 0.0 1.6 0.00 0.00 0.00 78 1010.3
20260510011245 13 189 1.6 1.6 0.00 0.00 0.00 78 1010.3
20260510010742 13 189 0.0 1.6 0.00 0.00 0.00 78 1010.3
20260510010238 13 189 0.0 3.2 0.00 0.00 0.00 77 1010.2
20260510005736 13 184 0.0 1.6 0.00 0.00 0.00 77 1010.4
20260510005232 13 184 0.0 1.6 0.00 0.00 0.00 77 1010.0
20260510004730 13 184 0.0 1.6 0.00 0.00 0.00 76 1009.9
20260510004228 14 184 0.0 1.6 0.00 0.00 0.00 75 1009.9
20260510003725 14 184 0.0 0.0 0.00 0.00 0.00 75 1009.9
20260510003221 14 184 0.0 1.6 0.00 0.00 0.00 75 1009.7
20260510002720 14 184 0.0 0.0 0.00 0.00 0.00 73 1009.8
20260510002217 15 184 0.0 0.0 0.00 0.00 0.00 72 1009.7
20260510001714 15 181 0.0 1.6 0.00 0.00 0.00 71 1009.7
20260510001213 15 196 1.6 3.2 0.00 0.00 0.00 71 1009.5
20260510000708 15 195 0.0 3.2 0.00 0.00 0.00 70 1009.7
20260510000205 15 193 0.0 4.8 0.00 0.00 0.00 69 1009.5
20260509235702 15 202 1.6 3.2 0.00 0.00 0.00 69 1009.5
20260509235158 15 192 3.2 3.2 0.00 0.00 0.00 69 1009.7
20260509234655 16 203 1.6 1.6 0.00 0.00 0.00 69 1009.9
20260509234152 16 206 0.0 8.0 0.00 0.00 0.00 67 1009.5
20260509233650 16 190 3.2 3.2 0.00 0.00 0.00 67 1009.5
20260509233147 16 228 6.4 9.7 0.00 0.00 0.00 67 1009.4
20260509232643 16 191 3.2 11.3 0.00 0.00 0.00 66 1009.3
20260509232140 16 199 1.6 3.2 0.00 0.00 0.00 67 1009.4
20260509231637 16 205 1.6 8.0 0.00 0.00 0.00 65 1009.3
20260509231134 16 208 1.6 8.0 0.00 0.00 0.00 65 1009.5
20260509230631 16 191 1.6 8.0 0.00 0.00 0.00 65 1009.5
20260509230128 16 166 3.2 11.3 0.00 0.00 0.00 65 1009.4
20260509225624 16 178 0.0 4.8 0.00 0.00 0.00 65 1009.3
20260509225119 16 176 3.2 4.8 0.00 0.00 0.00 65 1009.6
20260509224614 16 193 4.8 8.0 0.00 0.00 0.00 65 1009.6
20260509224112 16 190 1.6 9.7 0.00 0.00 0.00 65 1009.8
20260509223609 17 196 3.2 9.7 0.00 0.00 0.00 64 1009.7
20260509223107 17 204 1.6 9.7 0.00 0.00 0.00 64 1009.6
20260509222602 17 184 4.8 8.0 0.00 0.00 0.00 64 1009.7
20260509222058 17 188 3.2 9.7 0.00 0.00 0.00 65 1009.5
20260509221554 17 224 4.8 8.0 0.00 0.00 0.00 65 1009.7
20260509221050 17 222 8.0 9.7 0.00 0.00 0.00 64 1009.8
20260509220546 17 206 4.8 11.3 0.00 0.00 0.00 63 1009.8
20260509220043 17 181 1.6 8.0 0.00 0.00 0.00 63 1009.8
20260509215538 17 218 4.8 8.0 0.00 0.00 0.00 63 1009.8
20260509215036 17 208 3.2 3.2 0.00 0.00 0.00 64 1009.8
20260509214533 17 195 0.0 4.8 0.00 0.00 0.00 64 1009.9
20260509214030 17 187 4.8 11.3 0.00 0.00 0.00 64 1009.8
20260509213526 17 215 3.2 11.3 0.00 0.00 0.00 63 1009.8
20260509213023 17 214 4.8 9.7 0.00 0.00 0.00 63 1009.6
20260509212520 17 189 6.4 9.7 0.00 0.00 0.00 63 1009.7
20260509212017 18 187 1.6 8.0 0.00 0.00 0.00 62 1009.7
20260509211512 18 176 0.0 9.7 0.00 0.00 0.00 60 1009.5
20260509211009 18 194 3.2 4.8 0.00 0.00 0.00 61 1009.5
20260509210506 17 191 3.2 4.8 0.00 0.00 0.00 63 1009.5
20260509210002 17 184 1.6 3.2 0.00 0.00 0.00 63 1009.5
20260509205456 17 186 1.6 9.7 0.00 0.00 0.00 61 1009.1
20260509204952 17 173 1.6 11.3 0.00 0.00 0.00 63 1009.4
20260509204449 17 210 3.2 8.0 0.00 0.00 0.00 62 1009.3
20260509203945 17 181 1.6 4.8 0.00 0.00 0.00 63 1009.5
20260509203441 17 214 3.2 8.0 0.00 0.00 0.00 62 1009.3
20260509202939 17 227 3.2 9.7 0.00 0.00 0.00 63 1009.5
20260509202435 17 2 4.8 9.7 0.00 0.00 0.00 63 1009.6
20260509201930 17 189 1.6 4.8 0.00 0.00 0.00 63 1009.2
20260509201425 17 107 4.8 8.0 0.00 0.00 0.00 64 1009.3
20260509200923 17 191 3.2 4.8 0.00 0.00 0.00 63 1009.4
20260509200422 17 232 4.8 4.8 0.00 0.00 0.00 63 1009.4
20260509195920 17 182 4.8 4.8 0.00 0.00 0.00 63 1009.3
20260509195415 17 169 1.6 9.7 0.00 0.00 0.00 63 1009.2
20260509194915 17 229 6.4 8.0 0.00 0.00 0.00 62 1009.5
20260509194411 17 242 8.0 9.7 0.00 0.00 0.00 61 1009.4
20260509193908 17 197 3.2 4.8 0.00 0.00 0.00 61 1009.5
20260509193408 17 3 4.8 11.3 0.00 0.00 0.00 61 1009.4
20260509192903 17 213 3.2 8.0 0.00 0.00 0.00 62 1009.4
20260509192400 18 205 4.8 8.0 0.00 0.00 0.00 60 1009.2
20260509191855 18 211 3.2 4.8 0.00 0.00 0.00 61 1009.3
20260509191351 18 203 4.8 11.3 0.00 0.00 0.00 59 1009.3
20260509190848 18 186 1.6 4.8 0.00 0.00 0.00 60 1009.2
20260509190344 18 189 4.8 12.9 0.00 0.00 0.00 60 1009.5
20260509185842 17 194 4.8 12.9 0.00 0.00 0.00 61 1009.4
20260509185338 17 174 1.6 4.8 0.00 0.00 0.00 61 1009.3
20260509184836 17 196 6.4 11.3 0.00 0.00 0.00 61 1009.5
20260509184333 17 244 4.8 9.7 0.00 0.00 0.00 64 1009.5
20260509183829 16 239 4.8 11.3 0.00 0.00 0.00 63 1009.4
20260509183324 17 177 1.6 4.8 0.00 0.00 0.00 63 1009.3
20260509182821 17 252 4.8 9.7 0.00 0.00 0.00 61 1009.4
20260509182318 17 187 1.6 4.8 0.00 0.00 0.00 60 1009.4
20260509181815 17 259 3.2 11.3 0.00 0.00 0.00 61 1009.3
20260509181312 17 227 4.8 11.3 0.00 0.00 0.00 59 1009.3
20260509180810 17 186 1.6 4.8 0.00 0.00 0.00 61 1009.2
20260509180306 17 210 3.2 8.0 0.00 0.00 0.00 61 1009.3
20260509175802 17 194 4.8 8.0 0.00 0.00 0.00 61 1009.3
20260509175259 16 184 3.2 8.0 0.00 0.00 0.00 63 1009.2
20260509174755 17 197 4.8 12.9 0.00 0.00 0.00 62 1009.3
20260509174250 17 194 4.8 4.8 0.00 0.00 0.00 61 1009.5
20260509173746 17 188 4.8 9.7 0.00 0.00 0.00 61 1009.5
20260509173242 17 223 6.4 9.7 0.00 0.00 0.00 60 1009.5
20260509172738 17 181 3.2 9.7 0.00 0.00 0.00 62 1009.6
20260509172235 17 182 1.6 8.0 0.00 0.00 0.00 61 1009.6
20260509171730 17 186 3.2 11.3 0.00 0.00 0.00 61 1009.6
20260509171227 17 173 4.8 11.3 0.00 0.00 0.00 60 1009.7
20260509170724 17 211 4.8 8.0 0.00 0.00 0.00 60 1009.6
20260509170220 17 222 8.0 14.5 0.00 0.00 0.00 59 1009.8
20260509165718 17 211 3.2 4.8 0.00 0.00 0.00 58 1009.7
20260509165214 18 247 6.4 9.7 0.00 0.00 0.00 57 1009.7
20260509164710 17 190 1.6 3.2 0.00 0.00 0.00 58 1009.6
20260509164206 17 211 4.8 4.8 0.00 0.00 0.00 57 1009.5
20260509163703 17 209 0.0 1.6 0.00 0.00 0.00 60 1009.7
20260509163200 16 187 1.6 3.2 0.00 0.00 0.00 62 1009.9
20260509162657 16 202 4.8 4.8 0.00 0.00 0.00 60 1009.7
20260509162153 16 187 1.6 4.8 0.00 0.00 0.00 59 1009.9
20260509161649 16 193 3.2 3.2 0.00 0.00 0.00 60 1009.8
20260509161144 16 194 3.2 3.2 0.00 0.00 0.00 60 1009.9
20260509160640 15 185 0.0 3.2 0.00 0.00 0.00 62 1010.0
20260509160135 15 185 0.0 1.6 0.00 0.00 0.00 62 1010.0
20260509155632 15 192 1.6 4.8 0.00 0.00 0.00 62 1009.9
20260509155128 15 202 3.2 3.2 0.00 0.00 0.00 61 1009.7
20260509154624 15 188 0.0 4.8 0.00 0.00 0.00 61 1009.9
20260509154121 15 186 0.0 3.2 0.00 0.00 0.00 61 1010.2
20260509153618 15 197 3.2 4.8 0.00 0.00 0.00 60 1010.1
20260509153115 15 189 0.0 4.8 0.00 0.00 0.00 60 1010.3
20260509152611 15 192 1.6 3.2 0.00 0.00 0.00 59 1010.1
20260509152109 15 192 3.2 4.8 0.00 0.00 0.00 59 1010.3
20260509151604 15 190 0.0 3.2 0.00 0.00 0.00 60 1010.0
20260509151103 15 175 1.6 3.2 0.00 0.00 0.00 60 1010.7
20260509150600 15 181 0.0 1.6 0.00 0.00 0.00 63 1010.3
20260509150059 14 184 0.0 1.6 0.00 0.00 0.00 62 1010.3
20260509145554 14 184 1.6 1.6 0.00 0.00 0.00 64 1010.3
20260509145049 14 188 1.6 3.2 0.00 0.00 0.00 63 1010.7
20260509144546 14 181 1.6 3.2 0.00 0.00 0.00 66 1010.4
20260509144043 14 171 0.0 1.6 0.00 0.00 0.00 68 1010.4
20260509143540 15 168 0.0 4.8 0.00 0.00 0.00 66 1010.3
20260509143038 14 169 0.0 1.6 0.00 0.00 0.00 69 1010.0
20260509142533 14 169 0.0 1.6 0.00 0.00 0.00 68 1010.1
20260509142029 13 169 1.6 4.8 0.00 0.00 0.00 68 1010.0
20260509141526 13 121 3.2 4.8 0.00 0.00 0.00 69 1010.1
20260509141023 13 124 3.2 3.2 0.00 0.00 0.00 70 1009.9
20260509140519 13 167 0.0 1.6 0.00 0.00 0.00 71 1010.0
20260509140018 13 152 3.2 3.2 0.00 0.00 0.00 70 1010.1
20260509135514 12 136 3.2 4.8 0.00 0.00 0.00 72 1009.8
20260509135012 13 124 3.2 3.2 0.00 0.00 0.00 73 1010.0
20260509134509 12 149 1.6 3.2 0.00 0.00 0.00 74 1010.0
20260509134007 12 150 1.6 4.8 0.00 0.00 0.00 74 1010.0
20260509133503 12 122 4.8 4.8 0.00 0.00 0.00 74 1010.1
20260509133001 12 68 6.4 8.0 0.00 0.00 0.00 74 1010.4
20260509132459 12 117 3.2 4.8 0.00 0.00 0.00 74 1010.3
20260509131955 12 152 0.0 3.2 0.00 0.00 0.00 76 1010.0
20260509131453 12 166 0.0 4.8 0.00 0.00 0.00 75 1010.2
20260509130949 11 166 1.6 1.6 0.00 0.00 0.00 77 1010.6
20260509130445 11 141 1.6 3.2 0.00 0.00 0.00 78 1010.2
20260509125942 11 135 1.6 3.2 0.00 0.00 0.00 78 1010.2
20260509125438 11 157 1.6 3.2 0.00 0.00 0.00 79 1010.1
20260509124934 11 159 1.6 3.2 0.00 0.00 0.00 78 1010.4
20260509124432 11 166 0.0 3.2 0.00 0.00 0.00 78 1010.2
20260509123929 11 152 1.6 3.2 0.00 0.00 0.00 78 1009.9
20260509123426 11 173 0.0 0.0 0.00 0.00 0.00 78 1010.1
20260509122922 11 173 0.0 0.0 0.00 0.00 0.00 79 1010.3
20260509122419 10 173 0.0 0.0 0.00 0.00 0.00 79 1010.3
20260509121916 10 173 0.0 0.0 0.00 0.00 0.00 78 1010.2
20260509121413 10 173 0.0 0.0 0.00 0.00 0.00 78 1010.3
20260509120911 10 173 0.0 0.0 0.00 0.00 0.00 78 1010.2
20260509120408 10 172 0.0 0.0 0.00 0.00 0.00 78 1010.3
20260509115906 10 169 0.0 0.0 0.00 0.00 0.00 78 1010.0
20260509115403 10 169 0.0 0.0 0.00 0.00 0.00 78 1010.2
20260509114901 10 169 0.0 0.0 0.00 0.00 0.00 77 1010.4
20260509114359 10 175 0.0 0.0 0.00 0.00 0.00 79 1010.3
20260509113858 10 175 0.0 0.0 0.00 0.00 0.00 80 1010.3
20260509113355 10 175 0.0 1.6 0.00 0.00 0.00 81 1010.3
20260509112852 10 179 0.0 0.0 0.00 0.00 0.00 81 1010.6
20260509112349 10 179 0.0 0.0 0.00 0.00 0.00 83 1010.6
20260509111846 10 181 0.0 0.0 0.00 0.00 0.00 83 1010.6
20260509111343 10 181 1.6 1.6 0.00 0.00 0.00 82 1010.4
20260509110841 10 181 0.0 1.6 0.00 0.00 0.00 82 1010.4
20260509110336 10 180 0.0 0.0 0.00 0.00 0.00 82 1010.4
20260509105835 10 181 0.0 1.6 0.00 0.00 0.00 80 1010.7
20260509105333 10 182 1.6 1.6 0.00 0.00 0.00 80 1010.3
20260509104829 10 183 0.0 1.6 0.00 0.00 0.00 78 1010.4
20260509104326 10 179 0.0 0.0 0.00 0.00 0.00 76 1010.3
20260509103824 10 182 1.6 1.6 0.00 0.00 0.00 75 1010.3
20260509103321 10 174 0.0 0.0 0.00 0.00 0.00 75 1010.2
20260509102820 10 167 0.0 1.6 0.00 0.00 0.00 73 1010.2
20260509102317 10 172 0.0 3.2 0.00 0.00 0.00 73 1010.2
20260509101812 10 147 3.2 3.2 0.00 0.00 0.00 71 1010.2
20260509101308 10 175 0.0 3.2 0.00 0.00 0.00 71 1010.1
20260509100806 10 163 1.6 3.2 0.00 0.00 0.00 68 1010.1
20260509100303 11 173 0.0 3.2 0.00 0.00 0.00 68 1010.2
20260509095800 11 176 0.0 3.2 0.00 0.00 0.00 67 1010.2
20260509095257 11 174 0.0 0.0 0.00 0.00 0.00 66 1010.3
20260509094754 11 213 3.2 3.2 0.00 0.00 0.00 65 1010.2
20260509094251 11 176 0.0 1.6 0.00 0.00 0.00 65 1010.2
20260509093749 11 183 0.0 3.2 0.00 0.00 0.00 63 1010.2
20260509093246 11 175 1.6 3.2 0.00 0.00 0.00 63 1010.1
20260509092744 12 164 0.0 3.2 0.00 0.00 0.00 61 1010.2
20260509092242 12 76 1.6 3.2 0.00 0.00 0.00 60 1010.2
20260509091739 12 187 0.0 1.6 0.00 0.00 0.00 59 1010.3
20260509091235 12 187 0.0 0.0 0.00 0.00 0.00 61 1010.0
20260509090733 12 187 0.0 1.6 0.00 0.00 0.00 61 1010.1
20260509090231 12 186 0.0 0.0 0.00 0.00 0.00 61 1010.1
20260509085728 12 185 0.0 0.0 0.00 0.00 0.00 58 1010.1
20260509085225 12 186 0.0 0.0 0.00 0.00 0.00 58 1010.4
20260509084722 12 186 0.0 0.0 0.00 0.00 0.00 59 1010.2
20260509084218 12 188 0.0 0.0 0.00 0.00 0.00 58 1010.3
20260509083717 12 188 0.0 0.0 0.00 0.00 0.00 58 1010.2
20260509083213 12 189 0.0 1.6 0.00 0.00 0.00 58 1010.0
20260509082709 12 185 0.0 1.6 0.00 0.00 0.00 58 1010.3
20260509082206 12 187 0.0 1.6 0.00 0.00 0.00 61 1010.1
20260509081703 12 191 1.6 1.6 0.00 0.00 0.00 57 1010.3
20260509081200 12 191 1.6 1.6 0.00 0.00 0.00 56 1010.6
20260509080658 12 191 0.0 0.0 0.00 0.00 0.00 57 1010.3
20260509080156 12 187 0.0 0.0 0.00 0.00 0.00 58 1010.6
20260509075654 12 187 0.0 1.6 0.00 0.00 0.00 58 1010.2
20260509075151 12 189 0.0 1.6 0.00 0.00 0.00 59 1010.3
20260509074648 12 192 0.0 0.0 0.00 0.00 0.00 58 1010.2
20260509074144 12 188 0.0 0.0 0.00 0.00 0.00 59 1010.2
20260509073641 12 188 0.0 0.0 0.00 0.00 0.00 60 1010.4
20260509073137 12 189 0.0 0.0 0.00 0.00 0.00 61 1010.2
20260509072635 11 187 0.0 0.0 0.00 0.00 0.00 59 1010.1
20260509072131 11 187 0.0 0.0 0.00 0.00 0.00 61 1010.2
20260509071628 11 187 0.0 0.0 0.00 0.00 0.00 60 1010.2
20260509071125 11 187 0.0 0.0 0.00 0.00 0.00 62 1010.2
20260509070622 11 187 0.0 0.0 0.00 0.00 0.00 63 1010.2
20260509070119 11 187 0.0 0.0 0.00 0.00 0.00 62 1010.3
20260509065614 11 187 0.0 0.0 0.00 0.00 0.00 63 1010.2
20260509065110 11 187 0.0 0.0 0.00 0.00 0.00 64 1010.4
20260509064608 11 187 0.0 0.0 0.00 0.00 0.00 63 1010.2
20260509064106 11 187 0.0 0.0 0.00 0.00 0.00 64 1010.1
20260509063602 11 187 0.0 0.0 0.00 0.00 0.00 63 1010.3
20260509063059 11 187 0.0 0.0 0.00 0.00 0.00 65 1010.4
20260509062556 11 187 0.0 0.0 0.00 0.00 0.00 64 1010.6
20260509062053 11 187 0.0 0.0 0.00 0.00 0.00 66 1010.6
20260509061550 11 187 0.0 0.0 0.00 0.00 0.00 67 1010.4